GW7009 Weather Reports


time (UTC)temp
F
wind
direction
speed
knots
gust
knots
rain 1hr
in
rain 24hr
in
rain mn
in
humidity
%
barometer
mb
20260507030026 55 360 1.7 8.7 0.00 0.39 0.39 79 1010.3
20260507024528 56 27 0.0 4.3 0.00 0.39 0.39 81 1010.5
20260507023026 56 21 1.7 4.3 0.00 0.39 0.39 81 1010.3
20260507021527 56 39 3.5 4.3 0.00 0.39 0.39 82 1010.3
20260507020020 57 15 2.6 6.1 0.00 0.39 0.39 82 1010.4
20260507014524 58 349 1.7 9.6 0.00 0.39 0.39 82 1010.4
20260507013028 59 330 0.9 3.5 0.00 0.39 0.39 84 1010.3
20260507011534 59 303 1.7 4.3 0.00 0.39 0.39 84 1010.2
20260507010020 59 282 1.7 4.3 0.00 0.39 0.39 84 1010.0
20260507004522 59 285 0.9 2.6 0.00 0.39 0.39 85 1009.7
20260507003004 59 279 1.7 5.2 0.01 0.39 0.39 84 1009.5
20260507001508 60 305 2.6 6.1 0.08 0.39 0.39 84 1009.2
20260507000012 61 294 0.9 4.3 0.08 0.39 0.39 87 1008.8
20260506234520 61 309 0.9 2.6 0.08 0.39 0.39 87 1008.5
20260506233010 63 293 2.6 3.5 0.07 0.38 0.38 87 1008.4
20260506231506 64 238 1.7 3.5 0.00 0.31 0.31 86 1008.0
20260506230019 64 246 3.5 7.0 0.00 0.31 0.31 85 1008.0
20260506224518 64 277 3.5 6.1 0.00 0.31 0.31 85 1007.7
20260506223023 65 183 0.9 7.0 0.00 0.31 0.31 83 1007.6
20260506221504 65 221 3.5 5.2 0.00 0.31 0.31 81 1007.7
20260506220016 66 229 2.6 7.8 0.00 0.31 0.31 80 1007.5
20260506214519 66 232 2.6 7.0 0.00 0.31 0.31 80 1007.3
20260506213018 66 293 1.7 5.2 0.00 0.31 0.31 80 1007.2
20260506211530 66 221 1.7 9.6 0.00 0.31 0.31 80 1007.3
20260506210005 66 264 1.7 8.7 0.00 0.31 0.31 79 1007.0
20260506204516 66 257 3.5 7.8 0.00 0.31 0.31 80 1006.9
20260506203019 67 235 2.6 7.8 0.00 0.31 0.31 78 1006.9
20260506201536 66 243 3.5 6.1 0.00 0.31 0.31 80 1006.9
20260506200007 65 244 2.6 9.6 0.00 0.31 0.31 82 1007.0
20260506194512 64 240 5.2 10.4 0.00 0.31 0.31 81 1007.1
20260506193024 64 203 4.3 8.7 0.00 0.31 0.31 82 1007.2
20260506191524 64 270 6.1 9.6 0.00 0.31 0.31 82 1007.1
20260506190030 64 245 1.7 9.6 0.00 0.31 0.31 84 1007.1
20260506184518 63 252 4.3 11.3 0.00 0.31 0.31 84 1007.4
20260506183016 62 296 4.3 12.2 0.00 0.31 0.31 85 1007.6
20260506181522 62 221 3.5 8.7 0.00 0.31 0.31 86 1007.7
20260506180031 62 214 3.5 7.8 0.00 0.31 0.31 87 1007.8
20260506174530 62 276 3.5 11.3 0.00 0.31 0.31 86 1007.7
20260506173014 62 246 5.2 8.7 0.00 0.31 0.31 86 1007.6
20260506171530 61 203 4.3 8.7 0.00 0.31 0.31 87 1007.7
20260506170024 61 255 2.6 7.8 0.00 0.31 0.31 87 1007.7
20260506164529 61 217 5.2 10.4 0.00 0.31 0.31 87 1007.8
20260506163034 61 245 3.5 13.9 0.02 0.31 0.31 88 1007.7
20260506161517 61 247 4.3 10.4 0.04 0.31 0.31 88 1008.0
20260506160020 61 252 4.3 12.2 0.08 0.31 0.31 88 1007.9
20260506154529 61 183 4.3 11.3 0.13 0.31 0.31 89 1007.6
20260506153026 60 176 1.7 11.3 0.14 0.29 0.29 89 1007.5
20260506151521 60 207 0.9 7.0 0.14 0.27 0.27 89 1008.1
20260506150020 60 195 3.5 8.7 0.11 0.23 0.23 88 1008.6
20260506144524 60 191 3.5 10.4 0.10 0.18 0.18 88 1009.1
20260506143028 61 207 5.2 7.8 0.09 0.15 0.15 86 1008.7
20260506141527 61 214 1.7 7.0 0.07 0.13 0.13 86 1008.2
20260506140025 61 207 1.7 5.2 0.07 0.12 0.12 85 1008.2
20260506134530 61 188 0.0 1.7 0.04 0.08 0.08 84 1008.4
20260506133030 61 232 0.9 4.3 0.03 0.06 0.06 84 1008.6
20260506131527 61 241 0.9 4.3 0.04 0.06 0.06 83 1008.5
20260506130018 61 174 0.9 3.5 0.04 0.05 0.05 84 1008.6
20260506124522 61 233 0.0 1.7 0.03 0.04 0.04 82 1008.8
20260506123006 62 231 0.9 3.5 0.03 0.03 0.03 79 1009.0
20260506121508 62 266 0.9 2.6 0.02 0.02 0.02 78 1009.1
20260506120018 62 248 0.0 3.5 0.01 0.01 0.01 76 1008.7
20260506114533 63 253 0.9 2.6 0.01 0.01 0.01 74 1008.5
20260506113004 64 187 0.0 5.2 0.00 0.00 0.00 69 1008.3
20260506111508 65 258 3.5 7.0 0.00 0.00 0.00 65 1008.3
20260506110010 65 197 2.6 9.6 0.00 0.00 0.00 65 1007.9
20260506104516 65 207 5.2 11.3 0.00 0.00 0.00 64 1007.9
20260506103022 66 211 2.6 9.6 0.00 0.00 0.00 63 1007.6
20260506101503 66 269 3.5 8.7 0.00 0.00 0.00 63 1007.4
20260506100020 65 240 1.7 5.2 0.00 0.00 0.00 63 1007.5
20260506094516 66 164 1.7 5.2 0.00 0.00 0.00 62 1007.5
20260506093018 66 288 0.9 7.0 0.00 0.00 0.00 62 1007.6
20260506091524 66 258 0.9 4.3 0.00 0.00 0.00 60 1007.7
20260506090009 67 223 3.5 6.1 0.00 0.00 0.00 58 1007.8
20260506084512 67 240 2.6 7.8 0.00 0.00 0.00 57 1007.6
20260506083018 68 235 1.7 8.7 0.00 0.00 0.00 56 1007.7
20260506081521 68 210 4.3 9.6 0.00 0.00 0.00 55 1007.7
20260506073014 68 264 2.6 8.7 0.00 0.00 0.00 54 1007.9
20260506071522 68 236 3.5 11.3 0.00 0.00 0.00 53 1008.0
20260506061518 68 191 2.6 8.7 0.00 0.00 0.00 52 1008.6
20260506044533 69 221 2.6 6.1 0.00 0.00 0.00 46 1009.2
20260506043012 69 274 1.7 7.0 0.00 0.00 0.00 45 1009.1
20260506041516 68 230 2.6 6.1 0.00 0.00 0.00 45 1009.2
20260506040022 67 223 0.9 2.6 0.00 0.00 0.00 45 1009.2
20260506034503 69 198 0.0 4.3 0.00 0.00 0.00 43 1009.2
20260506033012 69 244 1.7 5.2 0.00 0.00 0.00 41 1009.2
20260506031527 69 141 0.9 5.2 0.00 0.00 0.00 42 1009.2